Presure
191 198 204 199 211 201 187 176 160 162 173 184 182 197 189 250 256 342 304 163 292 281 292 292 310 329 346 343 348 340 344 369 395 349 262 207 209 212 206 203 189 192 162 136 154 142 140
202 175 207 204 213 208 187 188 164 165 170 185 186 195 196 236 247 283 303 247 300 280 272 307 294 328 379 379 374 356 390 401 378 342 140 229 207 211 200 199 197 189 197 193 147 201 142
215 216 225 232 223 220 187 180 150 173 163 173 191 191 182 199 250 247 307 309 313 298 284 294 289 329 364 369 372 370 378 400 364 344 159 169 223 211 204 199 186 187 190 198 197 130 150
237 156 246 245 247 232 230 230 171 186 161 183 187 178 202 205 249 245 295 302 307 292 284 286 285 306 356 354 342 366 387 194 355 361 345 179 200 207 218 207 207 201 203 192 198 135 135
256 218 224 157 153 245 235 230 175 178 172 175 184 186 194 203 212 251 252 192 147 323 293 285 288 285 315 318 327 337 355 346 307 319 251 169 181 217 217 208 209 204 200 196 186 202 199
194 175 243 265 274 262 179 213 180 164 178 177 180 190 182 195 204 231 229 304 265 282 312 282 282 276 298 319 315 321 322 166 141 152 306 264 210 211 209 206 210 206 203 184 186 189 199
185 183 153 216 283 162 255 200 189 177 180 154 184 167 187 198 205 202 243 238 313 318 313 289 279 279 286 303 320 301 302 133 326 353 143 290 176 217 140 209 214 204 204 190 192 189 199
185 165 191 179 164 180 217 187 167 181 180 164 182 186 195 138 152 207 209 247 226 309 304 311 271 280 294 295 304 312 319 305 328 320 359 175 223 212 207 206 202 198 208 198 190 193 189
182 174 181 179 170 178 184 179 183 190 184 176 167 155 175 164 195 201 198 213 244 229 317 320 315 273 280 310 284 302 197 311 328 221 118 353 152 181 213 192 201 204 214 198 196 193 182
211 128 185 141 180 228 181 168 161 190 153 185 165 171 167 160 165 192 200 201 209 243 154 310 323 301 283 274 301 298 315 311 315 110 164 136 130 128 145 192 210 218 214 204 202 198 195
122 190 199 167 188 210 217 191 182 178 187 175 151 165 161 175 173 174 193 202 206 198 244 276 306 313 310 295 301 282 307 345 342 277 130 109 112 150 207 204 190 208 209 215 205 188 185
160 191 148 208 148 192 201 214 191 175 178 178 191 164 163 183 161 172 183 192 202 203 203 248 258 299 331 324 314 288 227 297 325 271 125 335 114 141 153 145 207 209 207 208 214 213 200
152 187 187 158 202 162 189 189 221 166 156 188 185 167 189 164 173 171 163 184 188 198 191 206 247 247 283 311 320 318 227 278 320 266 139 327 232 209 219 154 200 204 174 214 220 214 206
188 167 182 185 153 130 206 182 183 237 191 181 193 181 146 165 137 169 176 154 184 194 204 191 205 222 245 264 159 293 314 323 245 140 123 119 278 262 231 208 215 208 208 211 184 195 194
196 193 185 174 189 176 163 201 178 183 230 177 181 182 188 177 183 136 172 189 186 186 192 196 190 213 213 227 251 263 308 321 316 221 154 132 144 303 134 232 206 204 211 203 193 199 199
173 184 172 187 173 125 156 184 202 199 166 167 192 187 190 184 167 187 161 192 162 182 194 183 188 196 201 207 216 241 254 288 134 326 251 310 338 160 160 140 168 129 168 197 202 193 186
179 173 181 161 173 166 197 183 182 174 201 154 169 157 172 186 158 171 170 178 132 175 185 169 186 195 195 200 206 213 226 262 263 294 314 327 334 192 303 135 137 133 211 136 206 203 197
183 195 136 186 197 182 164 210 199 180 161 179 193 177 170 172 185 188 191 188 145 161 185 147 188 175 179 195 219 199 202 202 229 259 261 299 160 192 313 141 160 148 235 230 204 173 214
157 198 194 189 152 180 182 158 174 199 178 179 192 193 197 190 181 183 182 178 157 179 190 172 172 151 193 172 183 190 150 199 197 211 181 220 251 287 183 299 329 309 162 155 209 184 207
183 180 177 188 181 192 178 180 165 161 195 197 192 171 186 185 167 170 154 186 173 174 137 173 172 137 156 172 175 213 182 209 205 189 201 206 206 188 193 198 266 291 222 183 280 166 272
198 192 200 165 179 174 189 175 184 169 190 169 159 195 188 157 176 179 180 196 191 170 191 178 157 164 142 132 184 163 186 191 187 192 200 188 193 192 199 201 220 193 229 237 234 257 280
186 193 195 196 180 191 182 188 200 187 169 182 198 160 196 188 194 180 181 176 167 165 165 170 201 187 181 179 174 179 137 152 212 184 187 175 186 189 193 201 188 184 185 185 199 212 221
190 177 117 181 194 198 201 195 156 193 193 188 183 207 186 193 193 175 166 156 174 196 168 180 184 182 192 203 195 144 157 142 186 167 199 149 174 177 183 178 174 216 176 193 180 179 161
193 131 188 163 173 180 181 190 193 189 189 193 189 172 186 167 195 184 195 184 177 185 171 182 183 171 193 175 184 175 177 152 163 142 210 176 188 150 171 185 185 180 193 179 180 179 192
182 191 187 194 186 168 170 184 166 183 187 177 200 178 189 173 183 199 190 161 183 189 187 159 184 181 183 168 193 182 182 177 194 171 133 197 192 177 139 199 177 135 167 152 174 172 166
180 179 176 180 193 176 182 184 178 181 184 179 183 177 186 181 189 190 182 190 197 172 182 148 179 185 185 180 185 194 187 158 179 178 183 146 159 191 168 159 169 158 126 182 182 176 170
194 201 191 180 190 176 193 186 186 166 169 172 180 177 189 172 180 183 188 193 189 187 191 175 171 184 177 188 165 180 172 156 164 175 178 155 158 177 176 182 155 188 189 192 176 153 165
179 180 189 199 198 184 191 191 186 178 185 180 181 175 172 188 186 169 146 180 182 172 190 195 155 184 192 159 174 184 187 184 173 159 164 191 164 157 156 180 173 183 193 151 177 177 194
176 188 197 177 195 185 168 173 198 180 182 180 184 192 192 180 180 191 193 198 185 186 188 182 194 186 188 180 190 156 191 180 164 181 160 185 150 189 188 144 186 194 154 187 182 184 186
Wind_Speed
31 35 37 37 39 32 31 32 33 37 47 55 57 68 62 93 89 65 69 27 56 56 60 48 49 41 7 16 25 34 37 43 50 72 115 98 99 97 92 90 81 82 75 66 74 72 68
38 26 40 38 40 36 28 32 38 44 48 53 58 65 68 91 89 84 72 49 50 50 49 49 46 42 6 12 16 26 25 32 57 78 47 105 97 97 89 89 87 82 82 78 67 71 68
41 44 48 45 39 37 28 30 25 42 43 53 57 62 55 72 88 87 71 58 45 41 46 50 43 39 10 7 18 23 26 27 60 72 52 56 99 96 89 88 78 80 80 79 75 62 64
45 21 42 40 40 35 32 27 33 34 43 51 55 55 68 74 89 85 80 69 51 44 45 45 43 49 26 25 21 26 24 31 61 59 85 54 76 92 92 88 89 87 84 75 73 68 64
27 28 28 22 26 28 27 24 33 38 44 52 53 57 62 71 80 86 84 52 20 29 33 42 45 44 30 25 24 24 26 35 47 56 54 46 57 95 91 86 88 85 79 75 70 70 71
24 25 35 35 29 24 26 20 30 37 43 44 51 56 58 64 72 87 76 79 59 34 24 36 43 41 37 17 22 32 23 31 39 39 44 94 80 83 87 83 83 81 79 72 71 70 68
27 26 23 35 33 25 15 23 26 34 38 26 48 42 55 62 66 70 84 84 65 57 38 32 40 39 33 18 16 15 24 30 33 19 45 105 41 88 43 82 83 81 80 77 73 66 67
26 23 25 24 28 28 20 26 30 34 36 38 45 50 53 25 33 70 75 82 82 60 46 29 36 39 34 24 20 12 12 22 26 49 39 49 87 85 82 80 77 75 81 79 68 70 64
26 26 25 24 25 27 25 26 29 30 32 39 41 32 47 42 60 67 64 80 80 80 53 38 27 34 33 28 25 17 15 16 12 24 14 46 25 55 84 67 75 76 81 78 76 70 56
20 21 28 19 24 34 27 28 30 27 28 33 42 40 41 35 43 60 65 66 77 80 22 56 39 28 31 25 33 22 10 17 20 27 22 26 21 15 36 61 78 80 79 78 75 71 68
17 26 26 24 28 27 30 27 28 32 27 34 24 44 39 47 49 51 59 65 71 64 76 78 58 40 30 25 24 28 22 13 16 25 21 24 20 29 78 74 50 74 73 76 74 62 56
25 27 21 25 20 27 27 29 27 26 31 33 31 27 40 44 36 42 53 58 63 67 68 73 72 64 42 29 21 20 15 20 12 23 28 28 21 15 35 36 73 70 70 70 71 71 66
26 30 28 23 26 23 28 27 28 23 21 30 30 26 32 30 42 40 33 51 51 57 54 66 72 67 70 53 40 26 15 16 14 13 31 34 63 64 77 28 63 66 51 69 71 68 62
33 26 31 29 25 21 26 29 27 28 28 29 28 32 23 34 18 29 40 27 45 51 58 48 60 68 66 67 19 40 22 26 18 29 21 21 28 84 77 69 72 68 65 66 42 56 57
38 38 35 26 32 29 24 26 30 29 26 26 29 31 32 31 32 15 34 39 38 41 46 49 40 60 62 68 61 57 55 41 30 14 23 31 22 66 17 72 60 60 64 60 55 60 59
30 36 33 39 31 20 24 29 28 26 26 26 28 30 29 28 27 31 25 33 26 37 39 36 41 45 49 52 57 61 57 58 23 30 9 12 21 30 33 20 37 28 36 50 60 56 51
36 30 34 30 27 29 33 32 34 28 28 23 28 23 28 30 22 25 26 27 15 30 31 26 36 40 41 44 47 51 59 55 52 49 37 24 11 21 18 26 26 28 62 29 62 61 58
39 42 33 41 44 35 26 27 30 35 27 31 26 34 28 28 34 29 30 28 1 19 26 7 30 25 24 36 47 37 36 35 51 47 43 39 22 17 10 28 25 32 63 65 53 48 60
35 44 43 43 34 36 37 32 33 31 32 37 36 32 30 32 34 34 30 28 18 23 27 19 23 10 27 14 22 27 3 28 25 37 7 34 35 29 18 8 11 35 30 36 52 47 59
50 43 43 43 42 43 38 39 35 33 36 36 37 32 39 38 27 26 19 31 21 26 12 19 17 13 12 15 13 32 15 30 27 15 24 26 20 1 3 5 10 5 25 33 25 36 41
48 51 42 45 47 42 45 40 44 35 41 35 33 39 43 22 35 36 34 31 34 25 32 26 17 19 13 13 12 5 12 13 13 15 18 10 11 7 12 10 15 8 7 3 7 10 16
55 50 48 49 52 49 47 44 44 48 36 43 41 30 38 42 40 43 44 34 23 21 19 22 26 32 27 19 20 8 15 5 26 9 7 4 6 7 4 7 3 14 13 16 9 11 14
59 60 39 58 50 47 44 46 39 47 48 48 46 36 46 41 41 39 27 20 38 40 28 40 40 40 33 25 30 21 16 22 13 17 17 20 12 11 9 15 18 16 20 12 20 23 35
59 51 59 56 60 57 54 49 46 49 49 50 51 47 45 38 43 45 41 51 40 49 33 47 44 26 33 34 39 27 29 28 23 25 24 19 20 23 21 23 24 24 23 27 29 28 28
68 61 62 55 62 61 59 57 52 56 54 50 49 50 55 43 51 45 51 30 49 49 49 33 46 45 46 33 42 42 43 34 35 29 39 33 29 29 34 26 34 35 32 31 35 36 37
74 73 72 70 60 69 67 63 66 63 61 61 60 58 58 56 61 58 53 55 50 44 54 37 44 54 53 51 55 49 50 32 45 38 39 36 32 36 42 40 39 35 43 43 43 48 46
68 66 72 76 70 70 67 71 69 61 61 63 66 65 64 59 61 60 60 61 58 58 61 50 47 58 46 55 45 54 52 36 47 48 47 39 38 44 34 48 48 45 49 45 49 52 55
82 80 76 70 69 77 74 66 69 72 76 73 72 70 65 72 71 56 45 59 67 62 66 65 40 62 65 40 60 60 61 62 54 54 41 68 52 50 48 48 53 59 59 56 57 53 66
87 83 77 84 75 81 69 77 74 80 81 80 80 78 77 75 75 77 76 74 70 75 74 70 73 67 69 62 67 44 72 67 64 67 50 67 52 70 69 48 66 73 60 71 68 69 72
Wind_Direction
297 299 302 303 307 312 323 334 340 354 342 337 349 348 351 359 1 6 9 338 6 14 14 17 15 12 244 204 202 205 199 190 187 184 202 213 210 211 210 215 223 222 223 223 223 228 233
298 314 301 303 304 309 326 325 340 350 352 341 349 353 357 5 5 7 11 7 0 10 23 16 19 11 98 174 186 193 188 189 179 188 213 203 213 210 211 213 217 223 220 221 226 223 232
300 302 304 304 304 305 326 334 1 344 358 355 351 357 357 4 7 7 14 13 15 10 14 19 25 21 52 143 137 160 170 176 181 182 201 203 204 210 210 211 220 223 225 220 220 233 233
308 339 315 313 311 305 307 320 338 339 5 349 353 1 3 6 12 10 17 14 14 10 8 22 33 26 69 100 95 107 127 201 174 179 191 200 200 211 209 209 212 217 217 225 223 232 234
338 335 339 355 352 325 331 325 339 343 355 355 356 360 5 9 14 14 16 19 7 10 14 24 45 35 43 57 85 107 111 146 176 189 195 201 204 204 207 208 211 214 217 221 228 224 228
344 351 5 356 333 324 344 338 342 2 351 356 359 0 8 12 16 18 17 23 22 28 33 35 50 46 32 68 106 102 109 190 190 188 195 196 197 200 207 208 208 211 212 224 226 228 228
323 334 338 1 348 343 335 345 345 353 353 17 357 13 7 13 17 23 21 22 27 30 38 42 49 49 42 51 98 139 149 200 178 167 186 193 200 201 204 208 207 209 212 222 224 228 228
317 329 332 335 336 341 345 346 1 350 354 7 358 1 7 355 5 23 26 26 25 30 29 36 56 54 48 53 62 74 124 175 175 192 197 199 195 200 206 208 211 213 211 219 224 225 228
312 317 325 333 332 335 344 350 351 352 357 356 11 4 13 15 16 19 27 31 28 27 34 37 50 60 64 66 62 86 192 152 148 210 214 176 207 206 204 212 212 213 211 219 223 226 233
334 313 321 337 336 0 338 345 351 353 358 359 5 8 13 26 19 16 23 30 33 29 22 37 49 53 58 64 68 78 154 146 165 212 208 217 232 274 221 210 211 211 213 217 222 226 230
304 315 331 324 329 347 353 341 344 348 354 352 15 4 2 6 17 21 21 24 32 34 31 40 42 46 52 47 57 83 84 127 184 180 224 217 225 223 205 212 221 215 218 218 222 229 231
305 313 321 341 326 332 342 352 341 348 349 349 358 1 5 5 15 21 17 21 29 33 36 36 42 46 53 50 61 77 118 81 134 172 216 181 237 257 216 217 215 218 221 223 225 227 232
300 311 316 319 332 331 332 339 358 337 348 346 350 354 2 2 6 21 22 21 25 29 39 39 40 42 48 54 60 66 97 95 90 164 195 176 195 201 204 215 214 221 228 222 224 228 233
299 301 309 314 313 318 339 332 338 8 338 342 348 351 347 357 357 16 12 27 27 26 30 42 41 42 43 51 109 63 68 66 158 189 223 230 197 198 203 209 214 219 218 220 226 234 239
300 300 304 307 316 316 319 331 330 332 7 341 343 348 349 352 357 356 3 22 20 28 28 32 45 39 45 44 46 53 54 59 72 164 229 241 241 199 240 209 218 220 221 224 231 233 235
292 296 297 304 308 303 314 322 329 326 329 336 334 339 344 353 359 2 2 17 29 19 29 32 32 36 42 48 48 46 51 54 212 74 174 152 177 203 213 228 224 235 236 235 230 238 242
283 291 294 290 298 302 314 313 318 321 325 323 334 337 342 343 353 351 357 4 348 11 20 37 24 30 37 38 45 47 45 51 58 59 64 81 139 216 190 226 238 230 230 247 233 234 239
278 285 278 290 299 300 299 312 310 315 314 321 326 327 332 337 339 344 347 355 319 355 19 29 21 40 38 36 35 45 53 49 51 56 64 62 204 202 168 230 246 240 231 233 237 233 240
281 280 281 285 283 293 296 293 301 306 309 313 315 319 321 324 327 332 339 346 348 359 357 5 12 54 32 52 33 37 64 43 66 53 145 56 60 65 218 77 191 224 255 247 244 247 247
275 283 282 283 285 289 289 293 292 294 304 305 307 312 313 317 319 321 331 330 339 339 280 343 352 310 8 14 24 27 30 36 40 47 52 53 60 349 239 220 82 172 226 245 233 257 238
269 270 274 285 282 287 286 288 292 287 298 296 299 306 307 302 313 316 317 320 321 325 331 335 319 335 243 276 5 308 360 33 26 19 41 40 47 74 46 57 41 203 77 144 234 211 219
268 271 273 273 277 276 278 279 288 290 288 292 299 292 299 301 303 308 312 313 315 315 316 327 329 328 333 340 328 314 253 260 353 10 334 253 359 352 38 55 271 220 231 238 309 273 243
263 271 262 274 274 277 279 280 280 283 286 287 290 290 292 294 295 299 294 289 306 313 302 315 318 320 320 322 324 286 284 263 283 287 322 258 251 258 249 265 252 310 250 252 252 259 267
262 264 263 268 276 275 278 276 280 280 282 284 285 284 287 287 286 289 290 297 295 301 303 306 309 312 302 312 314 309 300 286 288 279 305 271 265 258 267 290 246 249 252 253 251 253 264
260 259 261 262 265 277 278 272 282 277 276 284 279 284 284 286 286 280 284 287 291 290 292 286 294 303 303 300 301 308 310 297 297 263 262 296 280 258 269 273 257 271 272 270 275 270 273
259 261 264 263 259 269 268 267 274 274 272 279 279 284 279 281 281 282 284 282 280 286 290 278 294 292 293 298 298 292 297 272 305 305 296 285 277 279 269 275 277 275 280 282 251 268 271
255 258 255 261 258 266 260 263 265 279 278 278 276 279 274 286 282 281 280 279 280 281 281 288 296 288 288 287 280 294 289 275 280 293 299 262 272 291 269 284 271 281 280 277 270 275 278
253 255 255 256 256 261 261 258 264 269 265 269 270 277 280 273 275 286 275 275 282 280 277 276 267 280 281 265 287 286 284 286 292 287 268 289 288 290 261 284 274 290 290 279 279 264 291
254 250 256 260 258 258 269 263 259 265 266 269 268 266 267 275 276 273 272 271 277 278 279 279 276 280 277 285 277 269 280 286 288 286 264 290 276 286 288 288 286 287 279 282 284 287 290